Regional Weather Roundup
Issued by NWS New Orleans/Baton Rouge, LA

Home | Current Version | Previous Version | Text Only | Print | Product List | Glossary On
Versions: 1 2 3 4 5 6 7 8 9 10 11 12 13 14 15 16 17 18 19 20 21 22 23 24 25 26 27 28 29 30 31 32 33 34 35 36 37 38 39 40 41 42 43 44 45 46 47 48 49 50
354
ASUS44 KLIX 222013
RWRLIX
NEW ORLEANS REGIONAL WEATHER ROUNDUP
NATIONAL WEATHER SERVICE NEW ORLEANS LA
300 PM CDT FRI SEP 22 2017

NOTE: "FAIR" INDICATES FEW OR NO CLOUDS BELOW 12,000 FEET WITH NO
      SIGNIFICANT WEATHER AND/OR OBSTRUCTIONS TO VISIBILITY.
      SKY/WX - SKY CONDITION AND SIGNIFICANT WEATHER.
      TMP - AIR TEMPERATURE.     DP    - DEWPOINT TEMPERATURE.
      RH  - RELATIVE HUMIDITY.   PRES  - PRESSURE.
      HI  - HEAT INDEX.          WCI   - WIND CHILL INDEX.

*  THESE STATIONS ARE NOT NWS OR FAA STATIONS AND ARE NOT UNDER
   NWS QUALITY CONTROL.

LAZ038-040-048-061>063-065>067-069-222100-
SOUTHEAST LOUISIANA

CITY           SKY/WX    TMP DP  RH WIND       PRES   REMARKS
N.O. INTL ARPT MOSUNNY   91  71  51 E8        29.93F HX  97
N.O. LAKEFRONT MOSUNNY   90  74  59 NE6       29.94F HX  99
N.O. DOWNTOWN*   N/A     90  69  50 VRB3      29.95F
RESERVE*         N/A     93  69  46 NE5       29.94F HX  98
SLIDELL        TSTM      84  72  67 SE8       29.94S
BATON ROUGE    MOSUNNY   92  67  43 VRB5      29.94F HX  95
BOOTHVILLE     SUNNY     88  74  63 NE8       29.95F HX  96
BELLE CHASSE   MOSUNNY   89  76  65 E9        29.94F HX 100
BOGALUSA*        N/A     92  67  43 N6        29.96F HX  96
GALLIANO*      PTCLDY    89  71  55 SE6       29.94F HX  95
NEW ROADS*       N/A     91  70  51 N6        29.95F HX  96
GONZALES*        N/A     92  69  46 E6        29.93F HX  96
HAMMOND*       SUNNY     93  63  36 E6        29.94F
HOUMA*         MOSUNNY   84  73  70 S10       29.94F
PORT FOURCHON* CLEAR     86  72  62 SE8       29.96F

$$

MSZ070-080>082-222100-
SOUTHERN MISSISSIPPI

CITY           SKY/WX    TMP DP  RH WIND       PRES   REMARKS
MCCOMB         SUNNY     91  66  43 W3        29.96F
GULFPORT       LGT RAIN  84  75  74 SW3       29.94F
BILOXI         MOSUNNY   86  76  71 S7        29.94F HX  96
PASCAGOULA     TSTM      73  69  87 W14G22    29.95S FOG

$$

COASTAL OBSERVATIONS
LAKE AND NEARSHORE STATIONS

STATION/POSITION TIME  TEMP    WIND        PRES    WAVE
                       AIR SEA DIR/SP/G            HT/PER
                 (UTC) (F)     (DEG/KT/KT) (MB)    (FT/S)
PASCAGOULA       1948   84     210/  7/ 10 1013.9
WAVELAND YACHT   1948   83 85  170/  8/  9 1014.3
GRAND ISLE       1948   85 87  180/  2/  7 1014.5
SOUTHWEST PASS   1948   87      80/  8/ 10   N/A
NEW CANAL        1948   85 83   30/  6/  7 1013.8
SHELL BEACH      1948   86 89   60/  8/  9 1014.2

OFFSHORE STATIONS

STATION/POSITION TIME  TEMP    WIND        PRES    WAVE
                       AIR SEA DIR/SP/G            HT/PER
                 (UTC) (F)     (DEG/KT/KT) (MB)    (FT/S)
64 S DAUPHIN ISL 1950   83 85   70/  6/  8 1014.1

$$





USA.gov is the U.S. government's official web portal to all federal, state and local government web resources and services.